Sherbrooke, Quebec

1:01 PM EDT on April 25, 2017 (GMT -0400)
Sherbrooke

Weather History for CYSC - October, 2013

Change the Weather History Date:

Thursday, October 10, 2013

  Actual Average Record
Temperature  
Mean Temperature 48 °F -  
Max Temperature 66 °F 55 °F 73 °F (2003)
Min Temperature 30 °F 34 °F 30 °F (2013)
Degree Days  
Heating Degree Days 17    
Moisture  
Dew Point 38 °F    
Average Humidity 75    
Maximum Humidity 100    
Minimum Humidity 26    
Precipitation  
Precipitation 0.00 in - - ()
Sea Level Pressure  
Sea Level Pressure 30.30 in    
Wind  
Wind Speed 2 mph ()    
Max Wind Speed 5 mph    
Max Gust Speed -    
Visibility 9.2 miles    
Events      
Averages and records for this station are not official NWS values.
T = Trace of Precipitation, MM = Missing Value Source: Averaged Metar Reports

Daily Weather History Graph

Daily Weather History Graph

Search for Another Location

Airport or City:

Trip Planner

Search our weather history database for the weather conditions in past years. The results will help you decide how hot, cold, wet, or windy it might be!

Date:

Astronomy

Oct. 10, 2013 Rise Set
Actual Time 6:56 AM EDT 6:09 PM EDT
Civil Twilight 6:26 AM EDT 6:39 PM EDT
Nautical Twilight 5:52 AM EDT 7:13 PM EDT
Astronomical Twilight 5:18 AM EDT 7:47 PM EDT
Moon 12:56 PM EDT (10/10) 10:34 PM EDT (10/10)
Length of Visible Light 12h 12m
Length of Day
11h 13m
Waxing Crescent, 35% of the Moon is Illuminated
Oct 10
Waxing Crescent
Oct 11
First Quarter
Oct 18
Full
Oct 26
Last Quarter
Nov 3
New

Hourly Weather History & Observations

Time (EDT) Temp. Windchill Dew Point Humidity Pressure Visibility Wind Dir Wind Speed Gust Speed Precip Events Conditions
12:00 AM 37.4 °F - 35.6 °F 93% 30.35 in 9.0 mi East 2.3 mph - N/A   Clear
1:00 AM 35.6 °F 31.7 °F 35.6 °F 100% 30.35 in 9.0 mi East 4.6 mph - N/A   Clear
2:00 AM 35 °F - 34 °F 93% 30.34 in 10 mi East 3.5 mph - -  
2:00 AM 35.6 °F 31.7 °F 33.8 °F 93% 30.34 in 9.0 mi East 4.6 mph - N/A   Clear
3:00 AM 33.8 °F 30.8 °F 33.8 °F 100% 30.33 in 9.0 mi East 3.5 mph - N/A   Clear
4:00 AM 33.8 °F - 32.0 °F 93% 30.33 in 9.0 mi ESE 2.3 mph - N/A   Clear
5:00 AM 34 °F - 33 °F 93% 30.34 in 10 mi East 2.3 mph - -  
5:00 AM 33.8 °F - 32.0 °F 93% 30.34 in 9.0 mi East 2.3 mph - N/A   Clear
6:00 AM 32.0 °F - 32.0 °F 100% 30.35 in 9.0 mi Calm Calm - N/A   Clear
7:00 AM 32.0 °F 28.7 °F 30.2 °F 93% 30.36 in 9.0 mi ESE 3.5 mph - N/A   Clear
8:00 AM 36 °F - 35 °F 96% 30.35 in 10 mi NE 1.2 mph - -  
8:00 AM 35.6 °F - 35.6 °F 100% 30.35 in 9.0 mi Calm Calm - N/A   Clear
9:00 AM 42.8 °F - 39.2 °F 87% 30.35 in 9.0 mi Calm Calm - N/A   Clear
10:00 AM 48.2 °F - 39.2 °F 71% 30.34 in 9.0 mi Variable 2.3 mph - N/A   Clear
11:00 AM 54 °F - 41 °F 51% 30.33 in 10 mi WSW 2.3 mph - -  
11:00 AM 53.6 °F - 41.0 °F 62% 30.33 in 9.0 mi SSW 3.5 mph - N/A   Clear
12:00 PM 59.0 °F - 42.8 °F 55% 30.31 in 9.0 mi Variable 2.3 mph - N/A   Clear
1:00 PM 64.4 °F - 41.0 °F 42% 30.29 in 9.0 mi West 3.5 mph - N/A   Clear
2:00 PM 66 °F - 40 °F 26% 30.27 in 10 mi South 4.6 mph - -  
2:00 PM 66.2 °F - 39.2 °F 37% 30.27 in 9.0 mi Variable 2.3 mph - N/A   Clear
3:00 PM 66.2 °F - 41.0 °F 40% 30.26 in 9.0 mi West 4.6 mph - N/A   Clear
4:00 PM 66.2 °F - 37.4 °F 35% 30.26 in 9.0 mi SW 4.6 mph - N/A   Clear
5:00 PM 64 °F - 43 °F 35% 30.24 in 10 mi West 1.2 mph - -  
5:00 PM 64.4 °F - 42.8 °F 45% 30.24 in 9.0 mi Calm Calm - N/A   Clear
6:00 PM 55.4 °F - 46.4 °F 72% 30.25 in 9.0 mi Calm Calm - N/A   Clear
7:00 PM 50.0 °F - 42.8 °F 76% 30.25 in 9.0 mi East 2.3 mph - N/A   Clear
8:00 PM 49 °F - 44 °F 78% 30.24 in 10 mi East 3.5 mph - -  
8:00 PM 50.0 °F - 44.6 °F 82% 30.24 in 9.0 mi East 3.5 mph - N/A   Clear
9:00 PM 46.4 °F 44.3 °F 42.8 °F 87% 30.24 in 9.0 mi ENE 4.6 mph - N/A   Clear
10:00 PM 44.6 °F - 41.0 °F 87% 30.24 in 9.0 mi Calm Calm - N/A   Clear
11:00 PM 42 °F - 39 °F 84% 30.23 in 10 mi East 4.6 mph - -  
11:00 PM 41.0 °F 38.0 °F 39.2 °F 93% 30.23 in 9.0 mi East 4.6 mph - N/A   Clear